KZ-1A R/B (45604 NORAD) Tracking and Keplerian Element Data

This shows tracking and keplerian element data for the satellite.

Feedback or suggestion? Click here.




ElementValue
Catalog45604
NameKZ-1A R/B
Epoch Orbit459
Epoch Day163.30353046
Epoch Year2020
RAAN194.5991
Inclination97.5369
Eccentricity0.0427158
Argument of Perigee258.4942
Mean Anonmoly96.806
Mean Motion15.39449241
Decay Rate0.00403758
L11 45604U 20028C 20163.30353046 .00403758 23398-5 15330-3 0 9999
L22 45604 97.5369 194.5991 0427158 258.4942 96.8060 15.39449241 4598

Live tracking and technical data element details for KZ-1A R/B (NORAD 45604). KZ-1A R/B can be tracked NOW for your location showing map with azimuth and elevation plus other details from your city location.

Track the satellite on the map from your city or location and see movement details for azimuth, elevation, latitude, longitude, range, height, and movement on the map or in text.







IsCatalogInMostPopularTable: catalog: 45604, numindb: 15
Update: records affected: 1



GetName: 45604 KZ-1A R/B

Hit Count: updated at: Wed, 08 Jul 2020 03:15:49 GMT